Location: Newark
(45.9456°N, 15.4064°E)
Time: 03:19:35
(UTC+00:00)

SR - Pass Details

Date: 26 January 2020
Orbit: 575 x 881 km, 66.7° (Epoch: 16 February)

Event Time Altitude Azimuth Distance (km) Brightness Sun altitude
Rises 05:16:14 0° 328° (NNW) 3,418 - -12.5°
Exits shadow 05:17:44 - 330° (NNW) 2,852 ? -12.2°
Reaches altitude 10° 05:18:49 10° 331° (NNW) 2,445 ? -12.1°
Maximum altitude 05:24:25 63° 53° (NE) 876 ? -11.1°
Drops below altitude 10° 05:29:31 10° 135° (SE) 2,239 ? -10.3°
Sets 05:31:48 0° 138° (SE) 3,108 ? -9.9°
